Regional Weather Roundup
Issued by NWS

Home | Current Version | Previous Version | Graphics & Text | Print | Product List | Glossary On
Versions: 1 2 3 4 5 6 7 8 9 10 11 12 13 14 15 16 17 18 19 20 21 22 23 24 25 26 27 28 29 30 31 32 33 34 35 36 37 38 39 40 41 42 43 44 45 46 47 48 49 50
000
ASUS43 KLSX 031307
RWRMO

WEATHER ROUNDUP FOR MISSOURI
NATIONAL WEATHER SERVICE ST LOUIS MO
800 AM CDT MON AUG 03 2015

NOTE: "FAIR" INDICATES FEW OR NO CLOUDS BELOW 12,000 FEET WITH NO
       SIGNIFICANT WEATHER AND/OR OBSTRUCTIONS TO VISIBILITY.
       CURRENT SKY AND/OR WEATHER CONDITIONS ARE NOT AVAILABLE FOR
       CHILLICOTHE AND FARMINGTON.

MOZ001>031-035>038-043-044-053-054-031400-
...NORTHERN AND WESTERN MISSOURI...

CITY           SKY/WX    TMP DP  RH WIND       PRES   REMARKS
KANSAS CTY INT PTSUNNY   73  66  78 CALM      29.94R
KANSAS C DTWN  SUNNY     77  68  73 NE5       29.93R
LEE`S SUMMIT   SUNNY     74  67  78 CALM      29.95R
ST JOSEPH        N/A     73  61  65 E9        29.94R
CHILLICOTHE      N/A     74  64  71 CALM      29.96R
KIRKSVILLE     SUNNY     71  61  70 N7        29.94R

$$
MOZ066>068-077>081-088>096-101>105-031400-
...SOUTHWEST MISSOURI...

CITY           SKY/WX    TMP DP  RH WIND       PRES   REMARKS
SPRINGFIELD    SUNNY     74  65  73 SW7       29.96R
JOPLIN         SUNNY     76  68  76 CALM      29.96R

$$
MOZ032>034-039>042-045>050-055>058-069>072-031400-
...CENTRAL MISSOURI...

CITY           SKY/WX    TMP DP  RH WIND       PRES   REMARKS
COLUMBIA       CLOUDY    74  68  81 W5        29.93R
JEFFERSON CITY PTSUNNY   75  68  78 CALM      29.91S
ROLLA          MOSUNNY   73  66  78 SW8       29.94R
SEDALIA        MOSUNNY   74  66  76 NW5       29.97R
WHITEMAN AFB   MOSUNNY   72  66  83 N3        29.96R
FT LEONARD WD  SUNNY     73  66  78 SW3       29.96R
OSAGE BEACH    SUNNY     73  64  73 SW3       29.94R

$$
MOZ051-052-059>065-031400-
...EAST CENTRAL MISSOURI...

CITY           SKY/WX    TMP DP  RH WIND       PRES   REMARKS
ST LOUIS INTL  MOSUNNY   80  64  58 W7        29.91R
SPIRIT OF STL  MOSUNNY   77  69  76 CALM      29.90R
ST CHARLES     MOSUNNY   78  66  66 SW5       29.88S

$$
MOZ072>076-082>087-097>100-106>115-031400-
...SOUTH CENTRAL AND SOUTHEAST MISSOURI...

CITY           SKY/WX    TMP DP  RH WIND       PRES   REMARKS
CAPE GIRARDEAU SUNNY     77  72  84 W6        29.91R
FARMINGTON     MOSUNNY   75  66  73 W5        29.97S
POPLAR BLUFF   SUNNY     77  71  82 NW7       29.91R
WEST PLAINS    SUNNY     75  68  78 W7        29.99R
$$



USA.gov is the U.S. government's official web portal to all federal, state and local government web resources and services.